Find Starlink 3240

NORAD ID: 49728 Int'l Des: 2021-115 Owner: SPXS Country: US Constellation: starlink operational
LEOCIRCULAR

現在のビュー

3D地球を読み込み中...

About Starlink 3240

Starlink 3240 (NORAD 49728) is a starlink constellation satellite (v1.5) launched Dec 2, 2021 by SPXS of US. It operates in LEO, CIRCULAR orbit with a mass of 290.00 kg.

次回通過

Passes for default location (London). Set your location on the main map for personalized predictions.

高度履歴

Loading altitude history...

軌道要素

1 49728U 21115E 26263.72456370 .00000630 00000-0 29770-4 0 9991
2 49728 53.1609 348.3279 0001109 80.6527 279.4601 15.34393028265045
Epoch: Sep 20, 2026 • Age: 14 hours

現在のステータス

高度 469.4 km
遠地点 / 近地点 N/A
速度 7.63 km/s
衛星直下点 -22.58°S, 142.65°W
打ち上げ日 Dec 2, 2021
運用期間 4.7 years
タイプ internet

技術仕様

分類 Payload
質量 290.00 kg
乾燥質量 270.00 kg
長さ 0.20 m
スパン 9.00 m
形状 ? Box + pan
製造者 SPXS
バスタイプ Starlink
フェーズステータス In Orbit
所有者/国 SPXS/US

Most Searched